Regional Weather Roundup
Issued by NWS Upton, NY

Current Version | Previous Version | Text Only | Print | Product List | Glossary Off
Versions: 1 2 3 4 5 6 7 8 9 10 11 12 13 14 15 16 17 18 19 20 21 22 23 24 25 26 27 28 29 30 31 32 33 34 35 36 37 38 39 40 41 42 43 44 45 46 47 48 49 50
000 ASUS41 KOKX 201408 RWROKX REGIONAL WEATHER ROUNDUP NATIONAL WEATHER SERVICE NEW YORK NY 900 AM EST FRI JAN 20 2017 NOTE: "FAIR" INDICATES FEW OR NO CLOUDS BELOW 12,000 FEET WITH NO SIGNIFICANT WEATHER AND/OR OBSTRUCTIONS TO VISIBILITY. NYZ071-072-176-178-NJZ106-104-201500- NEW YORK CITY METRO AREA CITY SKY/WX TMP DP RH WIND PRES REMARKS Central Park CLOUDY 41 31 67 VRB6 30.03S Wall St Helipt CLOUDY 42 33 70 NE6 30.03R Bronx Bot Gard NOT AVBL LaGuardia APRT CLOUDY 42 32 67 NE8 30.01S Kennedy INTL CLOUDY 43 28 55 E7 30.02S Breezy Point N/A 39 N/A N/A NE3 N/A Newark/Liberty CLOUDY 42 32 67 E3 30.02R Teterboro CLOUDY 41 31 67 NE3 30.00S $$ NYZ177-179-078>081-201500- LONG ISLAND NEW YORK CITY SKY/WX TMP DP RH WIND PRES REMARKS Jones Beach N/A 39 N/A N/A NE8 N/A WCI 34 Matinecock PT NOT AVBL Farmingdale CLOUDY 41 32 70 E6 30.01S MacArthur/ISP CLOUDY 41 32 70 NE5 30.01S Shirley CLOUDY 41 32 70 CALM 30.03R Westhampton CLOUDY 41 32 70 N3 30.03R Southampton NOT AVBL Bridgehampton NOT AVBL East Hampton CLOUDY 40 32 74 CALM 30.02R Montauk N/A 41 33 73 NE5 30.04R $$ NYZ052-065-067-201500- HUDSON VALLEY CITY SKY/WX TMP DP RH WIND PRES REMARKS White Plains PTSUNNY 39 30 70 E5 29.99S Newburgh CLOUDY 37 32 81 SE6 30.00S WCI 33 Montgomery CLOUDY 38 30 73 CALM 29.98S Poughkeepsie CLOUDY 37 29 72 E5 30.00S WCI 33 Albany CLOUDY 36 32 85 CALM 30.01R $$ NJZ001-105-106-008-010-013-015-019>022-104-201500- NEW JERSEY CITY SKY/WX TMP DP RH WIND PRES REMARKS Newark/Liberty CLOUDY 42 32 67 E3 30.02R Teterboro CLOUDY 41 31 67 NE3 30.00S Caldwell CLOUDY 40 31 70 E5 30.02R Somerville CLOUDY 34 31 88 CALM 29.99R Linden CLOUDY 41 32 69 CALM 30.01S Sussex LGT RAIN 35 33 92 SW3 29.99R Andover N/A 33 32 96 CALM 30.00R Trenton MOSUNNY 33 31 92 CALM 30.01R Millville CLOUDY 35 35 100 CALM 30.02R Atlantic City CLOUDY 35 31 85 CALM 30.01S Wrightstown PTSUNNY 33 31 94 CALM 29.99R Toms River CLOUDY 32 30 92 CALM 30.02R Belmar CLOUDY 41 35 79 NE5 30.01R $$ PAZ047>061-062-071-201500- EASTERN PENNSYLVANIA CITY SKY/WX TMP DP RH WIND PRES REMARKS Philadelphia CLOUDY 37 34 89 CALM 30.01S Allentown CLOUDY 33 30 88 E3 29.99S Scranton MOSUNNY 38 33 82 CALM 29.93S $$ CTZ002-004>006-009-010-012-RIZ004-006-007-MAZ004-011-015-201500- SOUTHERN NEW ENGLAND IN CT CITY SKY/WX TMP DP RH WIND PRES REMARKS Bradley INTL CLOUDY 37 32 82 NE3 30.03R Hartford CLOUDY 37 32 82 CALM 30.03R Danbury CLOUDY 37 29 72 CALM 30.02R Wtrbury/Oxford CLOUDY 37 28 70 CALM 30.01R Bridgeport CLOUDY 42 32 67 CALM 30.02S Meriden CLOUDY 39 33 79 CALM 30.02R New Haven CLOUDY 40 34 79 CALM 30.02R Chester CLOUDY 37 32 81 CALM 30.01S Groton CLOUDY 39 31 72 N3 30.03R Wilimantic CLOUDY 35 32 88 CALM 30.04R IN RI CITY SKY/WX TMP DP RH WIND PRES REMARKS Providence CLOUDY 35 29 78 CALM 30.04R Block Island NOT AVBL Westerly CLOUDY 39 28 64 VRB3 30.03S IN MA CITY SKY/WX TMP DP RH WIND PRES REMARKS Boston CLOUDY 37 31 78 NW3 30.04R Worcester CLOUDY 32 27 81 CALM 30.00R Westfield CLOUDY 35 33 92 CALM 30.02R Provincetown CLOUDY 41 29 62 N3 30.04R Nantucket CLOUDY 39 34 82 N6 30.02R WCI 35 $$ ANZ330-335-338-340-345-350-353-355-201500- COASTAL MARINE OBSERVATIONS STATION/POSITION TIME SKY/WX TEMP WIND PRES VSBY WAVE AIR SEA DIR/SP/G HT/PER (UTC) (F) (DEG/KT/KT) (MB) (MI) (FT/S) NY HARB ENTRANCE 1250 42 44 60/ 10/ 12 1015.8 4/12 20 S FIRE ISLAND 1250 43 45 50/ 10/ 12 1015.6 6/11 GREAT SOUTH BAY NOT AVBL 23 SSW MONTAUK P 1250 43 48 30/ 4/ 6 1016.5 4/10 15 E BARNEGAT LI 1330 47 N/A 5/13 HUDSON CANYON 1250 48 51 1015.4 5/10 KINGS POINT 1324 39 39 1016.0 EXECUTION ROCKS 1345 39 70/ 4/ 6 N/A CENTRAL LI SOUND 1330 40 CALM / 2 N/A 0 EASTERN LI SOUND NOT AVBL ROBBINS REEF 1324 41 70/ 5/ 6 1016.2 $$ >>>>>>>>>>>>>>>>>>>>>>>>>>>> KEY <<<<<<<<<<<<<<<<<<<<<<<<<<< > < > SKY/WX - Sky Condition/Present Weather < > TMP - Temperature in Fahrenheit < > DP - Dew Point in Fahrenheit < > RH - Relative Humidity in Percent < > WIND - Direction (from) and Speed in MPH < > PRES - Mean Sea Level Pressure (inches of Hg) < > WCI - Wind Chill Index < > VSB - VISIBILITY IN MILES < > HX - HEAT INDEX < > TC - TEMPERATURE IN CELSIUS < > VRB - VARIABLE WIND DIRECTION < > < >>>>>>>>>>>>>>>>>>>>>>>>>>>> KEY <<<<<<<<<<<<<<<<<<<<<<<<<<<

USA.gov is the U.S. government's official web portal to all federal, state and local government web resources and services.